TimeMDT,TemperatureF,Dew PointF,Humidity,Sea Level PressureIn,VisibilityMPH,Wind Direction,Wind SpeedMPH,Gust SpeedMPH,PrecipitationIn,Events,Conditions,WindDirDegrees,DateUTC
12:53 AM,59.0,28.0,31,29.79,10.0,Calm,Calm,-,N/A,,Clear,0,2013-05-07 06:53:00
1:53 AM,55.9,28.9,36,29.78,10.0,Calm,Calm,-,N/A,,Clear,0,2013-05-07 07:53:00
2:53 AM,52.0,28.9,41,29.77,10.0,NNE,3.5,-,N/A,,Clear,30,2013-05-07 08:53:00
3:53 AM,46.0,30.9,56,29.77,10.0,ENE,8.1,-,N/A,,Clear,70,2013-05-07 09:53:00
4:53 AM,37.0,30.0,76,29.80,10.0,West,6.9,-,N/A,,Clear,260,2013-05-07 10:53:00
5:53 AM,36.0,28.9,76,29.81,10.0,WSW,4.6,-,N/A,,Clear,240,2013-05-07 11:53:00
6:53 AM,39.9,32.0,73,29.81,10.0,West,3.5,-,N/A,,Clear,280,2013-05-07 12:53:00
7:53 AM,46.9,35.1,63,29.83,10.0,Calm,Calm,-,N/A,,Clear,0,2013-05-07 13:53:00
8:53 AM,55.9,34.0,44,29.84,10.0,Calm,Calm,-,N/A,,Clear,0,2013-05-07 14:53:00
9:53 AM,62.1,34.0,35,29.85,10.0,Calm,Calm,-,N/A,,Clear,0,2013-05-07 15:53:00
10:53 AM,66.9,36.0,32,29.86,10.0,NW,10.4,-,N/A,,Clear,310,2013-05-07 16:53:00
11:53 AM,72.0,33.1,24,29.85,10.0,North,8.1,19.6,N/A,,Clear,360,2013-05-07 17:53:00
12:53 PM,77.0,32.0,19,29.84,10.0,North,10.4,19.6,N/A,,Clear,10,2013-05-07 18:53:00
1:53 PM,77.0,34.0,21,29.85,10.0,North,9.2,20.7,N/A,,Clear,10,2013-05-07 19:53:00
2:53 PM,79.0,35.1,20,29.86,10.0,North,18.4,23.0,N/A,,Clear,350,2013-05-07 20:53:00
3:53 PM,77.0,34.0,21,29.88,10.0,NNE,17.3,24.2,N/A,,Clear,20,2013-05-07 21:53:00
4:53 PM,75.9,35.1,23,29.91,10.0,North,19.6,28.8,N/A,,Clear,10,2013-05-07 22:53:00
5:53 PM,73.0,35.1,25,29.94,10.0,NNE,20.7,29.9,N/A,,Clear,20,2013-05-07 23:53:00
6:53 PM,71.1,35.1,27,29.96,10.0,NNE,23.0,27.6,N/A,,Clear,20,2013-05-08 00:53:00
7:53 PM,66.9,32.0,27,29.99,10.0,NNE,16.1,-,N/A,,Clear,30,2013-05-08 01:53:00
8:53 PM,62.1,28.9,29,30.01,10.0,NE,15.0,-,N/A,,Clear,40,2013-05-08 02:53:00
9:53 PM,57.9,33.1,39,30.04,10.0,NNE,18.4,24.2,N/A,,Clear,30,2013-05-08 03:53:00
10:53 PM,54.0,32.0,43,30.07,10.0,NE,16.1,-,N/A,,Clear,50,2013-05-08 04:53:00
11:53 PM,51.1,30.0,44,30.09,10.0,ENE,12.7,-,N/A,,Clear,60,2013-05-08 05:53:00